Weather History for KMIE - January, 2015

Change the Weather History Date:

Saturday, January 3, 2015

  Actual Average Record
Temperature  
Mean Temperature 44 °F 27 °F  
Max Temperature 54 °F 34 °F 62 °F (2004)
Min Temperature 33 °F 20 °F -8 °F (2014)
Degree Days  
Heating Degree Days 21 38  
Month to date heating degree days 92 114  
Since 1 July heating degree days 2404 2312  
Cooling Degree Days 0 0  
Month to date cooling degree days 0 0  
Year to date cooling degree days 0 0  
Moisture  
Dew Point 43 °F    
Average Humidity 88    
Maximum Humidity 100    
Minimum Humidity 75    
Precipitation  
Precipitation 0.79 in 0.08 in 1.73 in (2005)
Month to date precipitation 0.79 0.25  
Year to date precipitation 0.79 0.25  
Sea Level Pressure  
Sea Level Pressure 29.88 in    
Wind  
Wind Speed 9 mph (South)    
Max Wind Speed 16 mph    
Max Gust Speed 22 mph    
Visibility 4 miles    
Events Rain    
T = Trace of Precipitation, MM = Missing Value Source: NWS Daily Summary

Daily Weather History Graph

Daily Weather History Graph

Search for Another Location

Airport or City:

Trip Planner

Search our weather history database for the weather conditions in past years. The results will help you decide how hot, cold, wet, or windy it might be!

Date:

Astronomy

Jan. 03, 2015 Rise Set
Actual Time 8:04 AM EST 5:27 PM EST
Civil Twilight 7:33 AM EST 5:58 PM EST
Nautical Twilight 6:59 AM EST 6:32 PM EST
Astronomical Twilight 6:26 AM EST 7:05 PM EST
Moon 4:35 PM EST (1/3) 6:25 AM EST (1/3)
Length of Visible Light 10h 24m
Length of Day
9h 23m
Waxing Gibbous, 98% of the Moon is Illuminated
Jan 3
Waxing Gibbous
Jan 4
Full
Jan 13
Last Quarter
Jan 20
New
Jan 26
First Quarter

Hourly Weather History & Observations

Time (EST) Temp. Windchill Dew Point Humidity Pressure Visibility Wind Dir Wind Speed Gust Speed Precip Events Conditions
12:53 AM 34.0 °F 28.8 °F 28.9 °F 82% 30.22 in 7.0 mi SSE 5.8 mph - N/A   Overcast
1:53 AM 34.0 °F 28.0 °F 30.9 °F 89% 30.17 in 4.0 mi SE 6.9 mph - 0.03 in Rain Light Rain
2:53 AM 34.0 °F 27.2 °F 32.0 °F 92% 30.15 in 4.0 mi SSE 8.1 mph - 0.01 in Rain Light Rain
3:15 AM 34.0 °F 27.2 °F 32.0 °F 92% 30.14 in 2.5 mi SE 8.1 mph - 0.01 in Rain Light Rain
3:25 AM 34.0 °F 27.2 °F 32.0 °F 92% 30.13 in 1.8 mi ESE 8.1 mph - 0.03 in Rain Light Rain
3:44 AM 34.0 °F 27.2 °F 32.0 °F 92% 30.12 in 2.5 mi SE 8.1 mph - 0.05 in Rain Light Rain
3:50 AM 33.8 °F 27.0 °F 32.0 °F 93% 30.11 in 3.0 mi SE 8.1 mph - 0.06 in Rain Light Rain
3:53 AM 34.0 °F 26.6 °F 32.0 °F 92% 30.12 in 3.0 mi ESE 9.2 mph - 0.06 in Rain Light Rain
4:53 AM 35.1 °F 29.3 °F 33.1 °F 92% 30.09 in 3.0 mi SE 6.9 mph - 0.04 in Rain Light Rain
5:53 AM 35.1 °F 29.3 °F 33.1 °F 92% 30.05 in 4.0 mi SSE 6.9 mph - 0.03 in Rain Light Rain
6:53 AM 35.1 °F 29.3 °F 34.0 °F 96% 30.02 in 5.0 mi SE 6.9 mph - 0.02 in Rain Light Rain
7:53 AM 36.0 °F 33.3 °F 34.0 °F 93% 30.01 in 7.0 mi SE 3.5 mph - 0.01 in Rain Light Rain
8:53 AM 37.9 °F 32.1 °F 36.0 °F 93% 29.99 in 5.0 mi SSE 8.1 mph - 0.04 in Rain Light Rain
9:46 AM 39.0 °F 32.8 °F 37.0 °F 93% 29.95 in 1.8 mi SSE 9.2 mph - 0.04 in Rain Light Rain
9:53 AM 39.0 °F 34.0 °F 37.9 °F 96% 29.97 in 1.8 mi South 6.9 mph - 0.05 in Rain Light Rain
9:57 AM 39.0 °F 32.3 °F 37.9 °F 96% 29.95 in 3.0 mi South 10.4 mph - 0.00 in Rain Light Rain
10:53 AM 41.0 °F 35.8 °F 39.0 °F 93% 29.95 in 5.0 mi South 8.1 mph - 0.02 in Rain Light Rain
11:21 AM 41.0 °F 36.4 °F 39.9 °F 96% 29.92 in 2.5 mi South 6.9 mph - 0.06 in Rain Rain
11:28 AM 42.1 °F 37.1 °F 39.9 °F 92% 29.91 in 4.0 mi South 8.1 mph - 0.08 in Rain Rain
11:53 AM 42.1 °F 36.1 °F 41.0 °F 96% 29.90 in 5.0 mi South 10.4 mph - 0.12 in Rain Light Rain
12:53 PM 46.0 °F 39.9 °F 44.1 °F 93% 29.84 in 4.0 mi SSW 13.8 mph 19.6 mph 0.02 in Rain Light Rain
1:53 PM 48.0 °F - 46.0 °F 93% 29.81 in 5.0 mi SSW 13.8 mph 20.7 mph 0.06 in Rain Light Rain
2:53 PM 48.9 °F - 48.0 °F 97% 29.77 in 5.0 mi SSW 11.5 mph - 0.04 in Rain Light Rain
3:53 PM 51.1 °F - 50.0 °F 96% 29.75 in 4.0 mi South 12.7 mph - 0.05 in Rain Light Rain
4:01 PM 51.1 °F - 50.0 °F 96% 29.75 in 2.0 mi SSW 8.1 mph 16.1 mph 0.01 in Rain Light Rain
4:15 PM 51.1 °F - 50.0 °F 96% 29.74 in 1.5 mi South 10.4 mph - 0.04 in Rain Light Rain
4:20 PM 51.1 °F - 50.0 °F 96% 29.75 in 2.0 mi SSW 9.2 mph - 0.04 in Rain Light Rain
4:27 PM 52.0 °F - 50.0 °F 93% 29.75 in 1.2 mi SSW 6.9 mph - 0.07 in Rain Rain
4:43 PM 51.1 °F - 50.0 °F 96% 29.75 in 2.0 mi South 9.2 mph - 0.10 in Rain Light Rain
4:51 PM 51.8 °F - 50.0 °F 94% 29.75 in 1.5 mi South 9.2 mph - 0.12 in Rain Light Rain
4:53 PM 51.1 °F - 50.0 °F 96% 29.75 in 1.5 mi South 9.2 mph - 0.12 in Rain Light Rain
5:05 PM 52.0 °F - 50.0 °F 93% 29.74 in 2.5 mi SSW 12.7 mph - 0.00 in Rain Light Rain
5:12 PM 52.0 °F - 50.0 °F 93% 29.74 in 4.0 mi SSW 11.5 mph - 0.00 in Rain Light Rain
5:20 PM 52.0 °F - 50.0 °F 93% 29.74 in 5.0 mi SSW 11.5 mph 19.6 mph 0.01 in   Overcast
5:53 PM 53.1 °F - 51.1 °F 93% 29.73 in 5.0 mi SSW 12.7 mph 19.6 mph 0.02 in   Overcast
6:26 PM 54.0 °F - 52.0 °F 93% 29.76 in 4.0 mi SW 10.4 mph 19.6 mph 0.00 in Rain Light Rain
6:53 PM 53.1 °F - 52.0 °F 96% 29.76 in 3.0 mi SW 10.4 mph 19.6 mph 0.01 in   Overcast
7:08 PM 53.1 °F - 52.0 °F 96% 29.76 in 3.0 mi SW 9.2 mph - 0.00 in Rain Light Rain
7:30 PM 46.9 °F - 46.0 °F 97% 29.78 in 3.0 mi NW 12.7 mph - 0.01 in Rain Light Rain
7:53 PM 44.1 °F 40.8 °F 43.0 °F 96% 29.80 in 3.0 mi WNW 5.8 mph - 0.01 in Rain Light Rain
8:11 PM 43.0 °F - 43.0 °F 100% 29.78 in 3.0 mi Calm Calm - 0.01 in Rain Light Rain
8:41 PM 44.1 °F - 43.0 °F 96% 29.78 in 6.0 mi Calm Calm - 0.02 in   Overcast
8:53 PM 44.1 °F - 43.0 °F 96% 29.79 in 3.0 mi Calm Calm - 0.02 in Rain Light Rain
9:00 PM 44.1 °F - 43.0 °F 96% 29.78 in 4.0 mi Calm Calm - 0.01 in Rain Light Rain
9:09 PM 44.1 °F - 43.0 °F 96% 29.77 in 4.0 mi Calm Calm - 0.01 in Rain Light Rain
9:53 PM 46.9 °F - 45.0 °F 93% 29.77 in 9.0 mi SSW 5.8 mph - 0.01 in   Overcast
10:53 PM 50.0 °F - 48.9 °F 96% 29.75 in 6.0 mi SW 9.2 mph - N/A   Overcast
11:53 PM 48.9 °F - 48.0 °F 97% 29.73 in 4.0 mi West 6.9 mph - N/A   Overcast
11:56 PM 48.9 °F - 48.0 °F 97% 29.74 in 1.5 mi West 6.9 mph - N/A   Overcast